This is the latest recevied weather packets stored in our database for station/object N5PRN. If no packets are shown the sender has not sent any weather packets the latest 10 day(s).
| Time | Temp. | Humidity | Pressure | Rain* | Wind** | Luminosity | Snow |
|---|---|---|---|---|---|---|---|
| 1778092170 | 26.67° C | 90% | 1011.6 hPa | 0 mm | - | 344 W/m² | - |
| 1778091867 | 27.22° C | 90% | 1011.6 hPa | 0 mm | - | 298 W/m² | - |
| 1778091564 | 27.22° C | 89% | 1011.7 hPa | 0 mm | - | 247 W/m² | - |
| 1778091262 | 26.67° C | 91% | 1011.8 hPa | 0 mm | - | 335 W/m² | - |
| 1778090959 | 26.67° C | 93% | 1011.8 hPa | 0 mm | - | 347 W/m² | - |
| 1778090654 | 26.67° C | 92% | 1011.9 hPa | 0 mm | - | 221 W/m² | - |
| 1778090352 | 26.67° C | 92% | 1012 hPa | 0 mm | - | 282 W/m² | - |
| 1778090049 | 26.11° C | 93% | 1011.8 hPa | 0 mm | - | 217 W/m² | - |
| 1778089745 | 25.56° C | 93% | 1011.8 hPa | 0 mm | - | 314 W/m² | - |
| 1778089443 | 25.56° C | 93% | 1012 hPa | 0 mm | - | 115 W/m² | - |
| 1778089140 | 26.11° C | 92% | 1012 hPa | 0 mm | - | 57 W/m² | - |
| 1778088837 | 26.67° C | 91% | 1012 hPa | 0 mm | - | 74 W/m² | - |
| 1778088534 | 26.67° C | 90% | 1012 hPa | 0 mm | - | 219 W/m² | - |
| 1778088230 | 26.67° C | 91% | 1011.9 hPa | 0 mm | - | 313 W/m² | - |
| 1778087928 | 26.11° C | 92% | 1012.2 hPa | 0 mm | - | 264 W/m² | - |
| 1778087625 | 26.11° C | 92% | 1012.2 hPa | 0 mm | - | 318 W/m² | - |
| 1778087322 | 26.11° C | 94% | 1012.3 hPa | 0 mm | - | 252 W/m² | - |
| 1778087018 | 25.56° C | 94% | 1012.5 hPa | 0 mm | - | 249 W/m² | - |
| 1778086712 | 25.56° C | 93% | 1012.3 hPa | 0 mm | - | 223 W/m² | - |
| 1778086409 | 25° C | 95% | 1012.2 hPa | 0 mm | - | 296 W/m² | - |
| 1778086105 | 25° C | 95% | 1012.2 hPa | 0 mm | - | 97 W/m² | - |
| 1778085802 | 25.56° C | 95% | 1012.3 hPa | 0 mm | - | 123 W/m² | - |
| 1778085500 | 25.56° C | 95% | 1012.3 hPa | 0 mm | - | 219 W/m² | - |
| 1778085194 | 25° C | 95% | 1012.3 hPa | 0 mm | - | 115 W/m² | - |
| 1778084890 | 25.56° C | 95% | 1012.6 hPa | 0 mm | - | 148 W/m² | - |
* Rain latest hour (hover to see other rain measurements)
** Current wind speed in m/s (hover to see current wind gust speed)